User: anonymous   Login
Location: Devargunta
(16.7631°N, 80.9077°E)
Time: 04:03:16
(UTC+00:00)
Language:

Cosmos 540 Rocket - Orbit

View from above orbital plane
View from above orbital plane
View from above satellite
View from above satellite

Ground track
Ground track

The orbit data is extracted from the following two-line orbital elements,

1 06324U 72104B   21101.90799465  .00000057  00000-0  24731-4 0  9996
2 06324  74.0791  40.9547 0009341 188.5680 171.5319 14.43526148536545
Epoch (UTC): 11 April 2021 21:47:30
Eccentricity: 0.0009341
inclination: 74.0791°
perigee height: 740 km
apogee height: 753 km
right ascension of ascending node: 40.9547°
argument of perigee: 188.5680°
revolutions per day: 14.43526148
mean anomaly at epoch: 171.5319°
orbit number at epoch: 53654

The dashed part of the orbit path shows where the satellite is in the earth's shadow,  

DLR